Simultaneous Nadir Overpasses (SNOs) Predictions

Prediction of SNOs between NOAA-19 and NPP Satellite Orbit:

Table of predicted SNOs for the next 14.0 days since TLE Epoch: 5/4/2019
Index Date (NOAA-19) Time (NOAA-19) Lat,Lon (NOAA-19) SZA (NOAA-19 ) Date (NPP) Time (NPP) Lat,Lon (NPP) SZA (NPP ) Distance(km) Time Diff (sec)
1 05/10/2019 04:15:20 80.11, 76.00 64.90 05/10/2019 04:16:26 80.10, 76.05 64.85 1.55 66
2 05/10/2019 05:06:18 -80.10,-116.83 115.11 05/10/2019 05:07:11 -80.10,-116.66 115.16 3.36 53
3 05/10/2019 05:57:21 80.11, 50.46 64.88 05/10/2019 05:57:57 80.13, 50.35 64.89 3.15 36
4 05/10/2019 06:48:18 -80.12,-142.06 115.15 05/10/2019 06:48:41 -80.10,-142.05 115.18 2.36 23
5 05/10/2019 07:39:21 80.12, 25.24 64.84 05/10/2019 07:39:26 80.10, 25.26 64.82 2.83 5
6 05/10/2019 08:30:18 -80.12,-167.59 115.16 05/10/2019 08:30:11 -80.13,-167.75 115.14 3.21 7
7 05/10/2019 09:21:21 80.12, -0.31 64.83 05/10/2019 09:20:56 80.13, -0.44 64.86 2.64 25
8 05/10/2019 10:12:19 -80.12, 166.87 115.18 05/10/2019 10:11:41 -80.13, 166.86 115.15 1.68 38
9 05/10/2019 11:03:22 80.12, -25.85 64.81 05/10/2019 11:02:26 80.13, -25.83 64.85 1.40 56




NCC Satellite Simultaneous Nadir Overpasses (SNOs) Prediction Service
